Time,TemperatureF,DewpointF,PressureIn,WindDirection,WindDirectionDegrees,WindSpeedMPH,WindSpeedGustMPH,Humidity,HourlyPrecipIn,Conditions,Clouds,dailyrainin,SoftwareType,DateUTC
2013-05-01 00:00:00,24.0,-99.9,-100.00,NE,53,20.0,24.0,-999,-99.99,,,-99.99,,2013-05-01 08:00:00,
2013-05-01 00:32:00,24.0,-99.9,-100.00,NE,53,20.0,24.0,-999,-99.99,,,-99.99,,2013-05-01 08:32:00,
2013-05-01 00:42:00,24.0,-99.9,-100.00,NE,53,20.0,24.0,-999,-99.99,,,-99.99,,2013-05-01 08:42:00,
2013-05-01 00:53:00,24.0,-99.9,-100.00,NE,53,20.0,24.0,-999,-99.99,,,-99.99,,2013-05-01 08:53:00,
2013-05-01 01:00:00,24.0,-99.9,-100.00,NE,52,22.0,26.0,-999,0.00,,,-99.99,,2013-05-01 09:00:00,
2013-05-01 01:33:00,24.0,-99.9,-100.00,NE,52,22.0,26.0,-999,0.00,,,-99.99,,2013-05-01 09:33:00,
2013-05-01 01:43:00,24.0,-99.9,-100.00,NE,52,22.0,26.0,-999,0.00,,,-99.99,,2013-05-01 09:43:00,
2013-05-01 01:53:00,24.0,-99.9,-100.00,NE,52,22.0,26.0,-999,0.00,,,-99.99,,2013-05-01 09:53:00,
2013-05-01 02:00:00,24.0,-99.9,-100.00,NE,51,28.0,33.0,-999,-99.99,,,-99.99,,2013-05-01 10:00:00,
2013-05-01 02:33:00,24.0,-99.9,-100.00,NE,51,28.0,33.0,-999,-99.99,,,-99.99,,2013-05-01 10:33:00,
2013-05-01 02:42:00,24.0,-99.9,-100.00,NE,51,28.0,33.0,-999,-99.99,,,-99.99,,2013-05-01 10:42:00,
2013-05-01 02:53:00,24.0,-99.9,-100.00,NE,51,28.0,33.0,-999,-99.99,,,-99.99,,2013-05-01 10:53:00,
2013-05-01 03:00:00,23.0,-99.9,-100.00,NE,54,29.0,36.0,-999,0.00,,,-99.99,,2013-05-01 11:00:00,
2013-05-01 03:32:00,23.0,-99.9,-100.00,NE,54,29.0,36.0,-999,0.00,,,-99.99,,2013-05-01 11:32:00,
2013-05-01 03:42:00,23.0,-99.9,-100.00,NE,54,29.0,36.0,-999,0.00,,,-99.99,,2013-05-01 11:42:00,
2013-05-01 03:52:00,23.0,-99.9,-100.00,NE,54,29.0,36.0,-999,0.00,,,-99.99,,2013-05-01 11:52:00,
2013-05-01 04:00:00,24.0,-99.9,-100.00,NE,50,30.0,34.0,-999,-99.99,,,-99.99,,2013-05-01 12:00:00,
2013-05-01 04:32:00,24.0,-99.9,-100.00,NE,50,30.0,34.0,-999,-99.99,,,-99.99,,2013-05-01 12:32:00,
2013-05-01 04:42:00,24.0,-99.9,-100.00,NE,50,30.0,34.0,-999,-99.99,,,-99.99,,2013-05-01 12:42:00,
2013-05-01 04:52:00,24.0,-99.9,-100.00,NE,50,30.0,34.0,-999,-99.99,,,-99.99,,2013-05-01 12:52:00,
2013-05-01 05:00:00,24.0,-99.9,-100.00,ENE,64,31.0,35.0,-999,0.00,,,-99.99,,2013-05-01 13:00:00,
2013-05-01 05:32:00,24.0,-99.9,-100.00,ENE,64,31.0,35.0,-999,0.00,,,-99.99,,2013-05-01 13:32:00,
2013-05-01 05:42:00,24.0,-99.9,-100.00,ENE,64,31.0,35.0,-999,0.00,,,-99.99,,2013-05-01 13:42:00,
2013-05-01 05:52:00,24.0,-99.9,-100.00,ENE,64,31.0,35.0,-999,0.00,,,-99.99,,2013-05-01 13:52:00,
2013-05-01 06:00:00,24.0,-99.9,-100.00,NE,54,31.0,35.0,-999,0.00,,,0.00,,2013-05-01 14:00:00,
2013-05-01 06:32:00,24.0,-99.9,-100.00,NE,54,31.0,35.0,-999,0.00,,,0.00,,2013-05-01 14:32:00,
2013-05-01 06:42:00,24.0,-99.9,-100.00,NE,54,31.0,35.0,-999,0.00,,,0.00,,2013-05-01 14:42:00,
2013-05-01 06:52:00,24.0,-99.9,-100.00,NE,54,31.0,35.0,-999,0.00,,,0.00,,2013-05-01 14:52:00,
2013-05-01 07:00:00,24.0,-99.9,-100.00,NE,39,30.0,35.0,-999,0.00,,,0.01,,2013-05-01 15:00:00,
2013-05-01 07:33:00,24.0,-99.9,-100.00,NE,39,30.0,35.0,-999,0.00,,,0.01,,2013-05-01 15:33:00,
2013-05-01 07:43:00,24.0,-99.9,-100.00,NE,39,30.0,35.0,-999,0.00,,,0.01,,2013-05-01 15:43:00,
2013-05-01 07:53:00,24.0,-99.9,-100.00,NE,39,30.0,35.0,-999,0.00,,,0.01,,2013-05-01 15:53:00,
2013-05-01 08:00:00,25.0,-99.9,-100.00,NE,42,32.0,40.0,-999,0.00,,,0.03,,2013-05-01 16:00:00,
2013-05-01 08:32:00,25.0,-99.9,-100.00,NE,42,32.0,40.0,-999,0.00,,,0.03,,2013-05-01 16:32:00,
2013-05-01 08:42:00,25.0,-99.9,-100.00,NE,42,32.0,40.0,-999,0.00,,,0.03,,2013-05-01 16:42:00,
2013-05-01 08:53:00,25.0,-99.9,-100.00,NE,42,32.0,40.0,-999,0.00,,,0.03,,2013-05-01 16:53:00,
2013-05-01 09:00:00,25.0,-99.9,-100.00,NNE,23,33.0,39.0,-999,0.00,,,0.03,,2013-05-01 17:00:00,
2013-05-01 09:32:00,25.0,-99.9,-100.00,NNE,23,33.0,39.0,-999,0.00,,,0.03,,2013-05-01 17:32:00,
2013-05-01 09:42:00,25.0,-99.9,-100.00,NNE,23,33.0,39.0,-999,0.00,,,0.03,,2013-05-01 17:42:00,
2013-05-01 09:52:00,25.0,-99.9,-100.00,NNE,23,33.0,39.0,-999,0.00,,,0.03,,2013-05-01 17:52:00,
2013-05-01 10:00:00,26.0,-99.9,-100.00,NE,35,32.0,37.0,-999,0.00,,,0.01,,2013-05-01 18:00:00,
2013-05-01 10:32:00,26.0,-99.9,-100.00,NE,35,32.0,37.0,-999,0.00,,,0.01,,2013-05-01 18:32:00,
2013-05-01 10:42:00,26.0,-99.9,-100.00,NE,35,32.0,37.0,-999,0.00,,,0.01,,2013-05-01 18:42:00,
2013-05-01 10:52:00,26.0,-99.9,-100.00,NE,35,32.0,37.0,-999,0.00,,,0.01,,2013-05-01 18:52:00,
2013-05-01 11:00:00,27.0,-99.9,-100.00,NE,38,27.0,30.0,-999,0.01,,,0.02,,2013-05-01 19:00:00,
2013-05-01 11:32:00,27.0,-99.9,-100.00,NE,38,27.0,30.0,-999,0.01,,,0.02,,2013-05-01 19:32:00,
2013-05-01 11:43:00,27.0,-99.9,-100.00,NE,38,27.0,30.0,-999,0.01,,,0.02,,2013-05-01 19:43:00,
2013-05-01 11:52:00,27.0,-99.9,-100.00,NE,38,27.0,30.0,-999,0.01,,,0.02,,2013-05-01 19:52:00,
2013-05-01 12:00:00,28.0,-99.9,-100.00,NE,38,25.0,28.0,-999,0.02,,,-99.99,,2013-05-01 20:00:00,
2013-05-01 12:32:00,28.0,-99.9,-100.00,NE,38,25.0,28.0,-999,0.02,,,-99.99,,2013-05-01 20:32:00,
2013-05-01 12:43:00,28.0,-99.9,-100.00,NE,38,25.0,28.0,-999,0.02,,,-99.99,,2013-05-01 20:43:00,
2013-05-01 12:52:00,28.0,-99.9,-100.00,NE,38,25.0,28.0,-999,0.02,,,-99.99,,2013-05-01 20:52:00,
2013-05-01 13:00:00,29.0,-99.9,-100.00,NNE,20,27.0,31.0,-999,0.02,,,0.02,,2013-05-01 21:00:00,
2013-05-01 13:32:00,29.0,-99.9,-100.00,NNE,20,27.0,31.0,-999,0.02,,,0.02,,2013-05-01 21:32:00,
2013-05-01 13:43:00,29.0,-99.9,-100.00,NNE,20,27.0,31.0,-999,0.02,,,0.02,,2013-05-01 21:43:00,
2013-05-01 13:53:00,29.0,-99.9,-100.00,NNE,20,27.0,31.0,-999,0.02,,,0.02,,2013-05-01 21:53:00,
2013-05-01 14:00:00,31.0,-99.9,-100.00,NE,54,16.0,21.0,-999,0.03,,,0.04,,2013-05-01 22:00:00,
2013-05-01 14:33:00,31.0,-99.9,-100.00,NE,54,16.0,21.0,-999,0.03,,,0.04,,2013-05-01 22:33:00,
2013-05-01 14:42:00,31.0,-99.9,-100.00,NE,54,16.0,21.0,-999,0.03,,,0.04,,2013-05-01 22:42:00,
2013-05-01 14:53:00,31.0,-99.9,-100.00,NE,54,16.0,21.0,-999,0.03,,,0.04,,2013-05-01 22:53:00,
2013-05-01 15:00:00,31.0,-99.9,-100.00,ENE,64,10.0,16.0,-999,0.02,,,0.04,,2013-05-01 23:00:00,
2013-05-01 15:32:00,31.0,-99.9,-100.00,ENE,64,10.0,16.0,-999,0.02,,,0.04,,2013-05-01 23:32:00,
2013-05-01 15:42:00,31.0,-99.9,-100.00,ENE,64,10.0,16.0,-999,0.02,,,0.04,,2013-05-01 23:42:00,
2013-05-01 15:52:00,31.0,-99.9,-100.00,ENE,64,10.0,16.0,-999,0.02,,,0.04,,2013-05-01 23:52:00,
2013-05-01 16:00:00,31.0,-99.9,-100.00,South,189,5.0,7.0,-999,0.01,,,0.03,,2013-05-02 00:00:00,
2013-05-01 16:32:00,31.0,-99.9,-100.00,South,189,5.0,7.0,-999,0.01,,,0.03,,2013-05-02 00:32:00,
2013-05-01 16:42:00,31.0,-99.9,-100.00,South,189,5.0,7.0,-999,0.01,,,0.03,,2013-05-02 00:42:00,
2013-05-01 16:52:00,31.0,-99.9,-100.00,South,189,5.0,7.0,-999,0.01,,,0.03,,2013-05-02 00:52:00,
2013-05-01 17:00:00,32.0,-99.9,-100.00,NE,42,4.0,5.0,-999,0.03,,,0.05,,2013-05-02 01:00:00,
2013-05-01 17:32:00,32.0,-99.9,-100.00,NE,42,4.0,5.0,-999,0.03,,,0.05,,2013-05-02 01:32:00,
2013-05-01 17:42:00,32.0,-99.9,-100.00,NE,42,4.0,5.0,-999,0.03,,,0.05,,2013-05-02 01:42:00,
2013-05-01 17:52:00,32.0,-99.9,-100.00,NE,42,4.0,5.0,-999,0.03,,,0.05,,2013-05-02 01:52:00,
2013-05-01 18:00:00,33.0,-99.9,-100.00,South,171,5.0,8.0,-999,0.01,,,0.05,,2013-05-02 02:00:00,
2013-05-01 18:32:00,33.0,-99.9,-100.00,South,171,5.0,8.0,-999,0.01,,,0.05,,2013-05-02 02:32:00,
2013-05-01 18:42:00,33.0,-99.9,-100.00,South,171,5.0,8.0,-999,0.01,,,0.05,,2013-05-02 02:42:00,
2013-05-01 18:52:00,33.0,-99.9,-100.00,South,171,5.0,8.0,-999,0.01,,,0.05,,2013-05-02 02:52:00,
2013-05-01 19:00:00,31.0,-99.9,-100.00,ENE,62,4.0,6.0,-999,0.00,,,0.05,,2013-05-02 03:00:00,
2013-05-01 19:33:00,31.0,-99.9,-100.00,ENE,62,4.0,6.0,-999,0.00,,,0.05,,2013-05-02 03:33:00,
2013-05-01 19:43:00,31.0,-99.9,-100.00,ENE,62,4.0,6.0,-999,0.00,,,0.05,,2013-05-02 03:43:00,
2013-05-01 19:53:00,31.0,-99.9,-100.00,ENE,62,4.0,6.0,-999,0.00,,,0.05,,2013-05-02 03:53:00,
2013-05-01 20:00:00,30.0,-99.9,-100.00,SE,126,3.0,7.0,-999,0.02,,,0.08,,2013-05-02 04:00:00,
2013-05-01 20:33:00,30.0,-99.9,-100.00,SE,126,3.0,7.0,-999,0.02,,,0.08,,2013-05-02 04:33:00,
2013-05-01 20:43:00,30.0,-99.9,-100.00,SE,126,3.0,7.0,-999,0.02,,,0.08,,2013-05-02 04:43:00,
2013-05-01 20:52:00,30.0,-99.9,-100.00,SE,126,3.0,7.0,-999,0.02,,,0.08,,2013-05-02 04:52:00,
2013-05-01 21:00:00,29.0,-99.9,-100.00,SSW,207,3.0,4.0,-999,-99.99,,,0.07,,2013-05-02 05:00:00,
2013-05-01 21:32:00,29.0,-99.9,-100.00,SSW,207,3.0,4.0,-999,-99.99,,,0.07,,2013-05-02 05:32:00,
2013-05-01 21:42:00,29.0,-99.9,-100.00,SSW,207,3.0,4.0,-999,-99.99,,,0.07,,2013-05-02 05:42:00,
2013-05-01 21:52:00,29.0,-99.9,-100.00,SSW,207,3.0,4.0,-999,-99.99,,,0.07,,2013-05-02 05:52:00,
2013-05-01 22:00:00,28.0,-99.9,-100.00,West,262,2.0,4.0,-999,0.00,,,0.10,,2013-05-02 06:00:00,
2013-05-01 22:32:00,28.0,-99.9,-100.00,West,262,2.0,4.0,-999,0.00,,,0.10,,2013-05-02 06:32:00,
2013-05-01 22:42:00,28.0,-99.9,-100.00,West,262,2.0,4.0,-999,0.00,,,0.10,,2013-05-02 06:42:00,
2013-05-01 22:52:00,28.0,-99.9,-100.00,West,262,2.0,4.0,-999,0.00,,,0.10,,2013-05-02 06:52:00,
2013-05-01 23:00:00,28.0,-99.9,-100.00,WSW,254,9.0,10.0,-999,0.00,,,0.11,,2013-05-02 07:00:00,
2013-05-01 23:32:00,28.0,-99.9,-100.00,WSW,254,9.0,10.0,-999,0.00,,,0.11,,2013-05-02 07:32:00,
2013-05-01 23:42:00,28.0,-99.9,-100.00,WSW,254,9.0,10.0,-999,0.00,,,0.11,,2013-05-02 07:42:00,
2013-05-01 23:52:00,28.0,-99.9,-100.00,WSW,254,9.0,10.0,-999,0.00,,,0.11,,2013-05-02 07:52:00,